DW4326 Weather Reports


time (UTC)temp
F
wind
direction
speed
knots
gust
knots
rain 1hr
in
rain 24hr
in
rain mn
in
humidity
%
barometer
mb
20260502203252 52 133 2.6 6.1 0.00 0.12 0.12 56 1008.3
20260502201752 53 257 2.6 7.0 0.00 0.12 0.12 62 1008.4
20260502200250 52 5 1.7 7.8 0.00 0.12 0.12 62 1008.4
20260502194750 51 315 1.7 8.7 0.00 0.12 0.12 64 1008.6
20260502193248 51 28 2.6 8.7 0.00 0.12 0.12 70 1008.7
20260502191747 49 190 0.0 4.3 0.00 0.12 0.12 82 1008.7
20260502190249 49 196 0.9 4.3 0.00 0.12 0.12 82 1008.7
20260502184747 49 186 1.7 5.2 0.00 0.12 0.12 83 1009.0
20260502183247 49 191 0.9 3.5 0.00 0.12 0.12 91 1009.0
20260502181742 47 174 0.0 3.5 0.00 0.12 0.12 90 1009.3
20260502180240 47 102 0.0 3.5 0.00 0.12 0.12 87 1009.4
20260502170229 47 186 0.0 0.0 0.00 0.12 0.12 85 1009.1
20260502163222 47 186 0.9 3.5 0.00 0.12 0.12 89 1009.3
20260502161715 46 180 0.0 1.7 0.00 0.12 0.12 93 1009.4
20260502160218 46 180 0.0 0.9 0.00 0.12 0.12 92 1009.7
20260502150204 45 180 0.0 0.0 0.03 0.12 0.12 93 1009.9
20260502130155 42 177 0.0 2.6 0.00 0.09 0.09 96 1010.5
20260502123156 41 20 0.0 0.0 0.00 0.09 0.09 96 1010.6
20260502121653 41 18 0.0 0.0 0.00 0.09 0.09 96 1010.6
20260502120155 41 18 0.0 0.0 0.00 0.09 0.09 96 1010.5
20260502114653 40 18 0.0 0.0 0.00 0.09 0.09 96 1010.5
20260502113153 40 18 0.0 0.0 0.00 0.09 0.09 96 1010.6
20260502111648 40 18 0.0 0.0 0.00 0.09 0.09 96 1010.6
20260502110146 40 18 0.0 0.0 0.01 0.09 0.09 96 1010.5
20260502104639 40 18 0.0 0.0 0.01 0.09 0.09 96 1010.4
20260502103141 40 18 0.0 0.0 0.01 0.09 0.09 96 1010.1
20260502101632 40 18 0.0 0.0 0.02 0.09 0.09 96 1009.8
20260502100132 40 18 0.0 0.0 0.02 0.08 0.08 96 1009.8
20260502090120 39 18 0.0 0.0 0.02 0.06 0.06 95 1010.0
20260502070117 39 18 0.0 0.0 0.01 0.01 0.01 91 1010.5
20260502064614 39 18 0.0 0.0 0.01 0.01 0.01 89 1010.5
20260502063846 39 18 0.0 0.0 0.00 0.00 0.00 87 1010.6
20260502062350 39 18 0.0 0.0 0.00 0.00 0.00 86 1010.9
20260502061614 39 18 0.0 0.0 0.00 0.00 0.00 86 1010.6
20260502055347 40 18 0.0 0.0 0.00 0.00 0.00 86 1010.9
20260502053112 39 18 0.0 0.0 0.00 0.00 0.00 83 1010.8
20260502051612 40 18 0.0 0.0 0.00 0.00 0.00 85 1010.7
20260502050108 39 13 0.0 0.0 0.00 0.00 0.00 85 1010.6
20260502045339 39 13 0.0 0.0 0.00 0.00 0.00 85 1010.5
20260502043108 39 13 0.0 0.0 0.00 0.00 0.00 85 1010.6
20260502042456 38 13 0.0 0.0 0.00 0.00 0.00 83 1010.6
20260502041607 39 13 0.0 0.0 0.00 0.00 0.00 84 1010.5
20260502040838 39 13 0.0 0.0 0.00 0.00 0.00 83 1010.6
20260502033104 38 13 0.0 0.0 0.00 0.00 0.00 83 1010.5
20260502031603 39 13 0.0 0.0 0.00 0.00 0.00 83 1010.4
20260502024600 40 13 0.0 0.0 0.00 0.00 0.00 81 1010.4
20260502023100 41 13 0.0 0.0 0.00 0.00 0.00 80 1010.3
20260502022330 42 13 0.0 0.0 0.00 0.00 0.00 80 1010.3
20260502020059 42 13 0.0 0.0 0.00 0.00 0.00 79 1010.4
20260502014556 42 13 0.0 0.0 0.00 0.00 0.00 78 1010.4
20260502013054 43 13 0.0 0.0 0.00 0.00 0.00 78 1010.4
20260502011553 43 13 0.0 0.0 0.00 0.00 0.00 77 1010.2
20260502010053 44 13 0.0 0.0 0.00 0.00 0.00 76 1010.1
20260502004553 44 13 0.0 0.0 0.00 0.00 0.00 75 1010.0
20260502003054 46 13 0.0 0.0 0.00 0.00 0.00 72 1009.8
20260502001554 47 13 0.0 0.0 0.00 0.01 0.00 71 1009.6
20260502000053 49 13 0.0 0.0 0.00 0.01 0.00 68 1009.1
20260501234555 50 13 0.0 0.0 0.00 0.02 0.00 66 1008.9
20260501233051 51 13 0.0 0.0 0.00 0.02 0.00 62 1008.7
20260501231550 52 13 0.0 0.0 0.00 0.02 0.00 58 1008.5
20260501230049 53 13 0.0 0.0 0.00 0.02 0.00 58 1008.4
20260501224549 54 13 0.0 0.0 0.00 0.03 0.00 47 1008.4
20260501223047 55 13 0.0 0.0 0.00 0.06 0.00 45 1008.3
20260501222317 55 5 0.9 3.5 0.00 0.12 0.00 42 1008.3
20260501220058 55 296 0.0 1.7 0.00 0.17 0.00 38 1008.2
20260501214543 55 17 1.7 5.2 0.00 0.19 0.00 39 1008.4
20260501213037 55 330 1.7 4.3 0.00 0.19 0.00 39 1008.3
20260501212308 56 319 1.7 8.7 0.00 0.20 0.00 41 1008.3
20260501210031 56 292 2.6 7.8 0.00 0.20 0.00 36 1008.2
20260501204532 56 323 2.6 10.4 0.00 0.20 0.00 38 1008.0